When you browse on this site, cookies collect data to enhance your experience and personalize the content and advertising you see.
Visit our Privacy Policy to learn more. By continuing to use the site, you agree to this use of cookies and data.
  • In Deutschland
  • Länderverzeichnis
  • Für 7 Tage
  • Wassertemperatur
  • Wetterkarte
  • Widgets
  • user-avatar
    Anmelden

    Stündliche Wetter Neuquén

    Heute, 14 Dezember, Samstag

    Zeit Temperatur Niederschläge Wind Luftdruck Luftfeuchtigkeit
    00:00 +17°C° 0 mm 5 m/S 731 mmHg 40%
    01:00 +17°C° 0 mm 4 m/S 731 mmHg 42%
    02:00 +16°C° 0 mm 5 m/S 731 mmHg 44%
    03:00 +15°C° 0 mm 5 m/S 732 mmHg 47%
    04:00 +14°C° 0 mm 5 m/S 732 mmHg 49%
    05:00 +16°C° 0 mm 5 m/S 732 mmHg 42%
    06:00 +19°C° 0 mm 5 m/S 732 mmHg 36%
    07:00 +21°C° 0 mm 6 m/S 733 mmHg 29%
    08:00 +23°C° 0 mm 6 m/S 732 mmHg 25%
    09:00 +24°C° 0 mm 6 m/S 732 mmHg 21%
    10:00 +26°C° 0 mm 6 m/S 732 mmHg 18%
    11:00 +28°C° 0 mm 6 m/S 731 mmHg 17%
    12:00 +29°C° 0 mm 5 m/S 731 mmHg 15%
    13:00 +30°C° 0 mm 5 m/S 730 mmHg 14%
    14:00 +30°C° 0 mm 4 m/S 730 mmHg 13%
    15:00 +32°C° 0 mm 4 m/S 729 mmHg 13%
    16:00 +31°C° 0 mm 3 m/S 729 mmHg 12%
    17:00 +29°C° 0 mm 5 m/S 729 mmHg 13%
    18:00 +28°C° 0 mm 6 m/S 730 mmHg 15%
    19:00 +26°C° 0 mm 7 m/S 730 mmHg 16%
    20:00 +24°C° 0 mm 8 m/S 731 mmHg 20%
    21:00 +22°C° 0 mm 9 m/S 731 mmHg 24%
    22:00 +21°C° 0 mm 10 m/S 732 mmHg 28%
    23:00 +18°C° 0 mm 10 m/S 732 mmHg 32%

    Morgen, 15 Dezember, Sonntag

    Zeit Temperatur Niederschläge Wind Luftdruck Luftfeuchtigkeit
    00:00 +17°C° 0 mm 10 m/S 732 mmHg 35%
    01:00 +16°C° 0 mm 10 m/S 732 mmHg 38%
    02:00 +16°C° 0 mm 10 m/S 732 mmHg 40%
    03:00 +14°C° 0 mm 10 m/S 732 mmHg 42%
    04:00 +14°C° 0 mm 10 m/S 732 mmHg 44%
    05:00 +16°C° 0 mm 9 m/S 733 mmHg 39%
    06:00 +18°C° 0 mm 9 m/S 733 mmHg 34%
    07:00 +21°C° 0 mm 8 m/S 734 mmHg 29%
    08:00 +22°C° 0 mm 7 m/S 734 mmHg 25%
    09:00 +24°C° 0 mm 7 m/S 734 mmHg 22%
    10:00 +26°C° 0 mm 6 m/S 734 mmHg 18%
    11:00 +27°C° 0 mm 7 m/S 733 mmHg 16%
    12:00 +28°C° 0 mm 7 m/S 732 mmHg 14%
    13:00 +29°C° 0 mm 7 m/S 732 mmHg 13%
    14:00 +29°C° 0 mm 8 m/S 731 mmHg 13%
    15:00 +29°C° 0 mm 8 m/S 731 mmHg 13%
    16:00 +29°C° 0 mm 9 m/S 730 mmHg 13%
    17:00 +28°C° 0 mm 8 m/S 731 mmHg 14%
    18:00 +26°C° 0 mm 7 m/S 731 mmHg 15%
    19:00 +24°C° 0 mm 6 m/S 731 mmHg 16%
    20:00 +23°C° 0 mm 7 m/S 731 mmHg 20%
    21:00 +22°C° 0 mm 9 m/S 732 mmHg 23%
    22:00 +21°C° 0 mm 10 m/S 732 mmHg 26%
    23:00 +19°C° 0 mm 10 m/S 732 mmHg 29%

    übermorgen, 16 Dezember, Montag

    Zeit Temperatur Niederschläge Wind Luftdruck Luftfeuchtigkeit
    00:00 +18°C° 0 mm 9 m/S 732 mmHg 32%
    01:00 +17°C° 0 mm 8 m/S 732 mmHg 35%
    02:00 +17°C° 0 mm 8 m/S 732 mmHg 35%
    03:00 +16°C° 0 mm 7 m/S 732 mmHg 36%
    04:00 +16°C° 0 mm 6 m/S 733 mmHg 36%
    05:00 +19°C° 0 mm 6 m/S 733 mmHg 32%
    06:00 +20°C° 0 mm 5 m/S 733 mmHg 28%
    07:00 +22°C° 0 mm 5 m/S 734 mmHg 25%
    08:00 +25°C° 0 mm 4 m/S 734 mmHg 23%
    09:00 +26°C° 0 mm 2 m/S 733 mmHg 22%
    10:00 +27°C° 0 mm 1 m/S 733 mmHg 20%
    11:00 +28°C° 0 mm 2 m/S 732 mmHg 18%
    12:00 +29°C° 0 mm 3 m/S 732 mmHg 16%
    13:00 +30°C° 0 mm 4 m/S 731 mmHg 14%
    14:00 +32°C° 0 mm 4 m/S 730 mmHg 13%
    15:00 +32°C° 0 mm 4 m/S 730 mmHg 12%
    16:00 +31°C° 0 mm 3 m/S 729 mmHg 12%
    17:00 +29°C° 0 mm 3 m/S 729 mmHg 13%
    18:00 +27°C° 0 mm 3 m/S 729 mmHg 15%
    19:00 +25°C° 0 mm 3 m/S 729 mmHg 17%
    20:00 +25°C° 0 mm 4 m/S 729 mmHg 17%
    21:00 +23°C° 0 mm 5 m/S 730 mmHg 18%
    22:00 +22°C° 0 mm 6 m/S 730 mmHg 19%
    23:00 +20°C° 0 mm 6 m/S 730 mmHg 26%

    17 Dezember, Dienstag

    Zeit Temperatur Niederschläge Wind Luftdruck Luftfeuchtigkeit
    00:00 +17°C° 0 mm 6 m/S 730 mmHg 33%
    01:00 +15°C° 0 mm 6 m/S 730 mmHg 40%
    02:00 +15°C° 0 mm 6 m/S 730 mmHg 43%
    03:00 +14°C° 0 mm 6 m/S 730 mmHg 45%
    04:00 +13°C° 0 mm 5 m/S 730 mmHg 47%
    05:00 +15°C° 0 mm 5 m/S 730 mmHg 42%
    06:00 +18°C° 0 mm 4 m/S 730 mmHg 36%
    07:00 +20°C° 0 mm 4 m/S 730 mmHg 31%
    08:00 +23°C° 0 mm 4 m/S 730 mmHg 26%
    09:00 +26°C° 0 mm 4 m/S 729 mmHg 21%
    10:00 +29°C° 0 mm 4 m/S 729 mmHg 16%
    11:00 +30°C° 0 mm 5 m/S 728 mmHg 14%
    12:00 +32°C° 0 mm 5 m/S 727 mmHg 12%
    13:00 +33°C° 0 mm 6 m/S 727 mmHg 10%
    14:00 +34°C° 0 mm 6 m/S 726 mmHg 9%
    15:00 +34°C° 0 mm 7 m/S 726 mmHg 9%
    16:00 +35°C° 0 mm 7 m/S 726 mmHg 9%
    17:00 +33°C° 0 mm 8 m/S 726 mmHg 14%
    18:00 +31°C° 0 mm 9 m/S 726 mmHg 20%
    19:00 +28°C° 0 mm 11 m/S 727 mmHg 26%
    20:00 +26°C° 0 mm 10 m/S 727 mmHg 30%
    21:00 +24°C° 0 mm 10 m/S 728 mmHg 33%
    22:00 +23°C° 0 mm 10 m/S 728 mmHg 37%
    23:00 +21°C° 0 mm 9 m/S 728 mmHg 41%

    18 Dezember, Mittwoch

    Zeit Temperatur Niederschläge Wind Luftdruck Luftfeuchtigkeit
    00:00 +20°C° 0 mm 7 m/S 728 mmHg 45%
    01:00 +19°C° 0 mm 6 m/S 727 mmHg 48%
    02:00 +19°C° 0 mm 6 m/S 727 mmHg 50%
    03:00 +19°C° 0 mm 6 m/S 727 mmHg 51%
    04:00 +17°C° 0 mm 6 m/S 727 mmHg 52%
    05:00 +20°C° 0 mm 8 m/S 727 mmHg 45%
    06:00 +22°C° 0 mm 9 m/S 728 mmHg 38%
    07:00 +24°C° 0 mm 10 m/S 728 mmHg 31%
    08:00 +27°C° 0 mm 11 m/S 728 mmHg 28%
    09:00 +29°C° 0 mm 11 m/S 727 mmHg 25%
    10:00 +31°C° 0 mm 11 m/S 727 mmHg 21%
    11:00 +32°C° 0 mm 11 m/S 727 mmHg 20%
    12:00 +33°C° 0 mm 11 m/S 726 mmHg 19%
    13:00 +34°C° 0 mm 11 m/S 726 mmHg 18%
    14:00 +33°C° 0 mm 12 m/S 726 mmHg 19%
    15:00 +33°C° 0 mm 12 m/S 726 mmHg 21%
    16:00 +32°C° 0 mm 13 m/S 726 mmHg 22%
    17:00 +29°C° 0 mm 12 m/S 726 mmHg 24%
    18:00 +28°C° 0 mm 11 m/S 727 mmHg 26%
    19:00 +26°C° 0 mm 10 m/S 727 mmHg 27%
    20:00 +24°C° 0 mm 9 m/S 727 mmHg 32%
    21:00 +22°C° 0 mm 8 m/S 728 mmHg 36%
    22:00 +21°C° 0 mm 7 m/S 728 mmHg 41%
    23:00 +20°C° 0 mm 6 m/S 727 mmHg 45%

    19 Dezember, Donnerstag

    Zeit Temperatur Niederschläge Wind Luftdruck Luftfeuchtigkeit
    00:00 +19°C° 0 mm 5 m/S 727 mmHg 48%
    01:00 +18°C° 0 mm 4 m/S 727 mmHg 52%
    02:00 +17°C° 0 mm 4 m/S 727 mmHg 55%
    03:00 +16°C° 0 mm 3 m/S 727 mmHg 58%
    04:00 +16°C° 0 mm 2 m/S 727 mmHg 61%
    05:00 +17°C° 0.2 mm 3 m/S 728 mmHg 59%
    06:00 +17°C° 0.2 mm 5 m/S 728 mmHg 56%
    07:00 +20°C° 0.2 mm 6 m/S 729 mmHg 53%
    08:00 +20°C° 0.2 mm 7 m/S 729 mmHg 53%
    09:00 +20°C° 0.2 mm 7 m/S 729 mmHg 53%
    10:00 +20°C° 0.2 mm 8 m/S 729 mmHg 53%
    11:00 +23°C° 0 mm 9 m/S 728 mmHg 42%
    12:00 +27°C° 0 mm 11 m/S 728 mmHg 31%
    13:00 +31°C° 0 mm 12 m/S 728 mmHg 20%
    14:00 +31°C° 0 mm 12 m/S 728 mmHg 19%
    15:00 +31°C° 0 mm 12 m/S 728 mmHg 18%
    16:00 +31°C° 0 mm 12 m/S 728 mmHg 16%
    17:00 +28°C° 0 mm 12 m/S 728 mmHg 20%
    18:00 +26°C° 0 mm 11 m/S 728 mmHg 23%
    19:00 +23°C° 0 mm 10 m/S 729 mmHg 26%
    20:00 +22°C° 0 mm 10 m/S 729 mmHg 29%
    21:00 +19°C° 0 mm 9 m/S 730 mmHg 32%
    22:00 +18°C° 0 mm 8 m/S 730 mmHg 35%
    23:00 +17°C° 0 mm 8 m/S 731 mmHg 38%
    Mehr zeigen